This demonstration page uses our WeatherBlox Daily Observations layout. Learn more.

36.17497, -115.13722

Hourly Observations for October 2, 2018

Temp ( °F °C ) Dew Point ( °F °C ) Humidity (%) Winds ( mph kmh ) Pressure ( in mb ) Visibility ( mi km ) Precip ( " mm )
12:53 am 00:53 Clear 76 24.4 59 15 56 56 SSE 7 11 29.85 1011 10 16.09344 0 0
1:53 am 01:53 Partly Cloudy 76 24.4 59 15 56 56 S 6 9 29.85 1011 10 16.09344 0 0
2:53 am 02:53 Cloudy 76 24.4 59 15 56 56 Calm 29.85 1011 10 16.09344 0 0
3:53 am 03:53 Mostly Cloudy 76 24.4 59 15 56 56 ESE 6 9 29.83 1010 10 16.09344 0 0
4:53 am 04:53 Mostly Cloudy 74 23.3 60 15.6 62 62 SE 8 13 29.85 1011 10 16.09344 0 0
5:53 am 05:53 Clear 74 23.3 60 15.6 62 62 ESE 6 9 29.83 1010 10 16.09344 0 0
6:53 am 06:53 Mostly Sunny 74 23.3 61 16.1 64 64 SE 7 11 29.85 1011 10 16.09344 0 0
7:53 am 07:53 Mostly Sunny 74 23.3 62 16.7 67 67 SE 7 11 29.85 1011 10 16.09344 0 0
8:53 am 08:53 Partly Cloudy 75 23.9 63 17.2 66 66 ESE 7 11 29.85 1011 10 16.09344 0 0
9:53 am 09:53 Mostly Cloudy 76 24.4 62 16.7 62 62 SSE 7 11 29.85 1011 10 16.09344 0 0
10:53 am 10:53 Cloudy 77 25 61 16.1 58 58 Calm 29.85 1011 10 16.09344 0 0
11:53 am 11:53 Mostly Cloudy 80 26.7 60 15.6 51 51 SSE 8 13 29.83 1010 10 16.09344 0 0
12:53 pm 12:53 Mostly Sunny 82 27.8 59 15 46 46 N 6 9 29.8 1009 10 16.09344 0 0
1:53 pm 13:53 Mostly Cloudy 84 28.9 60 15.6 44 44 SSE 15 24 29.77 1008 10 16.09344 0 0
2:53 pm 14:53 Mostly Cloudy 83 28.3 60 15.6 46 46 S 16 26 29.77 1008 10 16.09344 0 0
3:53 pm 15:53 Mostly Cloudy 84 28.9 61 16.1 46 46 SE 14 22 29.77 1008 10 16.09344 0 0
4:53 pm 16:53 Sunny 83 28.3 59 15 44 44 SE 13 20 29.77 1008 10 16.09344 0 0
5:53 pm 17:53 Sunny 82 27.8 60 15.6 47 47 SE 13 20 29.77 1008 10 16.09344 0 0
6:53 pm 18:53 Clear 80 26.7 63 17.2 56 56 ESE 9 15 29.77 1008 10 16.09344 0 0
7:53 pm 19:53 Clear 80 26.7 63 17.2 56 56 SE 9 15 29.8 1009 10 16.09344 0 0
8:53 pm 20:53 Partly Cloudy 79 26.1 62 16.7 56 56 E 3 6 29.8 1009 10 16.09344 0 0
9:53 pm 21:53 Mostly Clear 78 25.6 62 16.7 58 58 ESE 6 9 29.8 1009 10 16.09344 0 0
10:53 pm 22:53 Clear 77 25 61 16.1 58 58 ESE 7 11 29.83 1010 10 16.09344 0 0
11:53 pm 23:53 Clear 77 25 60 15.6 56 56 S 8 13 29.83 1010 10 16.09344 0 0

Powered by AerisWeather